This is the latest recevied weather packets stored in our database for station/object W8RSN-13. If no packets are shown the sender has not sent any weather packets the latest 10 day(s).
| Time | Temp. | Humidity | Pressure | Rain* | Wind** | Luminosity | Snow |
|---|---|---|---|---|---|---|---|
| 1787438001 | 36.67° C | 29% | 1014.2 hPa | - | - | - | - |
| 1787437700 | 36.67° C | 29% | 1014.3 hPa | - | - | - | - |
| 1787437399 | 36.67° C | 29% | 1014.5 hPa | - | - | - | - |
| 1787437098 | 36.67° C | 30% | 1014.4 hPa | - | - | - | - |
| 1787436797 | 36.67° C | 30% | 1014.7 hPa | - | - | - | - |
| 1787436496 | 36.67° C | 30% | 1014.6 hPa | - | - | - | - |
| 1787436215 | 36.11° C | 31% | 1014.9 hPa | - | - | - | - |
| 1787435914 | 36.67° C | 31% | 1014.7 hPa | - | - | - | - |
| 1787435614 | 36.11° C | 31% | 1014.8 hPa | - | - | - | - |
| 1787435313 | 36.67° C | 31% | 1014.8 hPa | - | - | - | - |
| 1787435011 | 36.11° C | 31% | 1014.9 hPa | - | - | - | - |
| 1787434711 | 36.67° C | 31% | 1014.8 hPa | - | - | - | - |
| 1787434410 | 36.11° C | 32% | 1015 hPa | - | - | - | - |
| 1787434109 | 36.11° C | 31% | 1015.3 hPa | - | - | - | - |
| 1787433808 | 36.11° C | 31% | 1015.2 hPa | - | - | - | - |
| 1787433507 | 36.11° C | 33% | 1015.1 hPa | - | - | - | - |
| 1787433206 | 36.67° C | 32% | 1015.3 hPa | - | - | - | - |
| 1787432905 | 36.67° C | 30% | 1015.2 hPa | - | - | - | - |
| 1787432604 | 36.67° C | 26% | 1015.5 hPa | - | - | - | - |
| 1787432303 | 36.67° C | 29% | 1015.5 hPa | - | - | - | - |
| 1787432002 | 36.11° C | 26% | 1015.6 hPa | - | - | - | - |
| 1787431702 | 36.11° C | 25% | 1015.7 hPa | - | - | - | - |
| 1787431401 | 36.67° C | 26% | 1015.6 hPa | - | - | - | - |
| 1787431100 | 36.67° C | 26% | 1015.9 hPa | - | - | - | - |
| 1787430799 | 36.11° C | 28% | 1015.7 hPa | - | - | - | - |
* Rain since midnight (hover to see other rain measurements)
** Current wind speed in m/s (hover to see current wind gust speed)